Wetbulb
53.37 52.32 51.66 51.16 50.78 50.16 49.97 50.48 50.00 49.49 48.69 47.87 47.09 47.07 47.03 47.40 46.90 40.30 36.97 38.30 32.57 21.22 27.28 32.96 33.28 27.85 28.21 24.59 18.03 24.43 20.68 21.01 19.34 13.25 15.30 18.36 19.40 18.96 16.76 18.16 15.49 11.65 6.61 9.41 15.20 16.81 16.45 31.13 29.61 24.02 27.84 31.85 31.80 31.82
51.41 50.68 50.08 49.95 49.85 49.89 49.76 49.61 49.21 48.75 47.68 47.25 47.16 46.93 46.49 46.46 46.11 41.73 35.03 38.88 38.08 30.15 28.00 34.12 35.17 35.79 34.42 32.53 27.55 24.33 21.88 22.89 24.02 16.77 17.09 18.61 17.68 17.85 16.77 11.42 18.96 12.27 17.91 21.07 20.38 18.45 29.09 31.39 31.51 33.62 33.86 31.83 32.46 30.15
50.45 50.11 49.76 49.63 49.57 49.82 48.99 48.32 47.75 47.27 47.13 46.77 46.34 46.11 46.29 46.15 45.64 40.97 35.00 34.67 32.87 27.55 25.67 27.03 27.99 32.29 34.84 35.44 35.37 22.79 23.24 28.22 26.36 26.44 19.19 18.55 12.89 17.46 12.09 14.11 14.96 19.92 24.07 19.37 18.79 25.60 28.21 30.06 32.39 34.30 34.82 32.47 33.10 31.60
49.19 49.17 49.03 49.08 48.70 48.14 47.73 47.38 47.26 46.89 46.61 46.23 46.13 45.59 44.96 44.87 44.62 41.27 34.89 35.30 32.60 27.74 18.40 24.59 33.71 30.18 32.64 32.78 33.43 33.62 31.21 30.35 26.85 21.39 14.36 14.69 13.87 21.49 15.80 19.61 18.31 22.17 21.19 19.67 20.40 24.64 27.77 29.39 31.71 33.43 34.39 33.09 32.58 32.17
47.85 47.99 48.23 47.96 47.48 47.33 47.30 47.09 46.59 46.18 46.16 45.56 44.69 44.27 44.07 44.42 44.31 38.53 35.54 35.72 35.69 28.38 16.85 22.19 27.96 30.44 31.95 31.54 30.70 31.15 30.15 25.71 18.92 19.64 13.96 16.36 21.19 19.22 19.04 19.35 20.09 24.00 22.82 18.31 18.50 26.27 26.36 28.04 31.85 33.70 33.31 32.20 32.05 30.60
49.28 48.51 47.77 47.55 47.20 47.09 46.41 45.77 45.48 45.18 44.90 44.68 44.61 44.29 43.95 43.60 41.51 33.24 26.40 34.95 37.41 32.92 19.63 11.21 25.13 26.91 30.21 31.05 30.19 29.30 29.72 23.94 20.22 20.52 18.94 22.19 23.61 24.71 20.30 16.48 24.04 27.64 28.58 28.28 25.62 30.01 30.59 31.55 32.61 34.56 33.69 32.84 32.98 33.03
47.73 47.30 46.88 46.49 46.69 45.88 45.56 45.15 45.00 44.85 44.73 44.56 44.40 44.24 43.35 43.02 34.13 30.12 27.23 33.91 38.50 32.39 18.47 15.34 16.98 25.20 27.20 27.89 27.52 26.39 25.60 20.20 22.81 21.02 25.38 21.56 22.18 29.23 24.30 19.03 26.36 29.16 29.38 28.51 30.16 30.01 27.54 29.18 29.96 34.38 32.67 33.56 34.72 31.88
45.92 45.80 45.60 45.97 45.67 45.22 44.78 44.88 44.77 44.94 44.45 44.18 44.10 43.45 43.60 43.04 39.80 34.16 36.51 40.70 35.68 27.31 25.03 8.81 11.57 18.73 26.66 22.36 21.05 25.47 19.12 17.74 21.22 20.17 21.64 23.85 22.34 21.48 19.35 23.44 25.86 28.52 29.57 29.27 29.30 30.67 30.56 31.78 32.52 31.93 31.03 31.91 30.36 30.52
45.58 45.61 46.06 45.51 45.10 44.53 44.26 44.51 44.52 44.25 44.11 43.84 43.52 43.33 36.63 32.31 27.95 33.60 42.15 39.51 33.92 25.85 10.44 7.82 13.70 11.56 24.85 20.51 20.02 21.95 21.08 15.20 20.64 23.78 22.64 23.66 19.14 16.67 23.25 28.77 29.74 30.85 29.14 28.82 30.53 29.86 29.67 29.38 30.34 29.19 28.66 28.91 28.65 29.59
45.67 45.70 45.66 45.29 44.75 44.45 44.24 43.91 44.30 44.39 43.86 42.57 35.76 30.46 23.55 29.17 40.82 38.49 27.95 22.74 24.42 28.35 28.00 13.11 19.32 18.41 21.56 18.35 14.53 13.28 12.04 17.45 17.94 18.16 25.39 24.79 19.79 28.04 32.25 32.07 31.25 31.07 30.91 30.42 27.05 27.62 28.25 27.37 28.67 28.52 29.18 30.34 29.71 29.53
45.46 45.29 45.29 45.09 44.94 44.79 44.52 44.19 44.21 43.99 40.43 32.95 26.81 24.27 30.93 36.27 27.90 21.40 10.21 11.85 11.22 12.11 12.84 20.48 21.22 18.28 24.52 18.21 16.33 17.24 10.90 9.99 8.59 16.45 22.23 19.17 20.93 27.97 30.21 30.05 30.77 30.61 30.55 30.12 30.27 30.64 29.59 29.45 30.07 29.46 29.61 30.04 29.92 30.14
45.37 45.36 45.52 45.26 45.20 45.17 44.66 44.67 44.73 36.03 32.83 32.96 31.72 30.73 27.02 17.51 12.09 9.37 -1.18 5.26 9.60 13.43 18.19 20.71 22.61 22.66 21.46 20.84 16.18 15.91 14.20 13.59 9.18 21.72 20.76 19.84 26.00 28.42 28.91 28.88 29.85 30.32 29.75 31.59 31.77 31.23 31.50 31.74 31.19 30.73 29.92 29.85 30.36 31.12
45.68 45.53 45.55 45.47 45.28 45.07 44.83 44.95 43.08 41.96 37.41 30.64 23.50 14.76 14.53 9.17 6.46 2.13 -1.21 5.18 9.05 19.59 21.53 21.91 19.26 18.81 20.37 17.55 11.41 18.48 13.37 13.15 24.32 19.46 19.12 23.31 26.88 28.30 28.01 28.02 28.96 30.39 30.17 31.67 32.08 31.16 31.63 31.26 32.01 30.92 29.66 29.81 30.97 31.48
45.60 45.54 45.38 45.31 45.05 44.77 44.86 44.74 43.47 39.17 30.96 19.13 12.56 9.04 7.32 0.51 5.48 7.08 10.14 13.52 20.58 20.79 20.47 20.61 19.99 18.85 19.02 15.31 8.36 10.51 15.25 19.03 16.19 17.43 18.73 23.32 24.76 27.45 28.26 27.19 27.25 28.50 29.50 30.18 30.70 31.51 31.90 31.47 31.16 30.62 30.00 30.38 31.25 32.09
44.76 44.75 44.58 44.22 44.58 44.58 44.45 44.16 41.73 35.64 27.13 17.42 13.73 7.04 10.07 16.51 13.61 15.95 13.89 13.44 21.22 22.55 21.84 16.48 15.36 16.03 8.65 10.30 11.72 14.02 12.85 12.35 20.41 19.27 21.51 24.54 26.03 30.22 29.01 27.03 26.76 28.11 28.95 30.59 31.91 31.54 31.09 30.49 30.42 29.95 29.88 30.89 32.29 32.43
43.77 42.98 38.58 43.20 43.54 44.34 43.74 40.30 36.03 32.97 23.52 16.33 16.28 13.43 19.54 18.40 12.94 14.41 18.61 15.10 20.35 20.67 21.24 18.68 10.03 14.12 12.91 11.12 11.50 14.60 17.33 17.87 20.05 22.86 25.89 25.61 28.93 29.66 29.33 27.90 27.14 29.76 30.89 31.28 31.98 32.17 31.46 30.69 31.33 31.22 31.75 31.95 31.74 32.21
41.29 34.10 42.97 43.96 43.77 42.78 41.12 33.90 30.30 20.28 16.54 11.66 12.12 22.87 21.00 20.07 18.39 15.39 20.25 20.75 22.86 18.58 11.82 8.77 7.27 10.73 13.34 10.03 9.93 22.11 21.91 23.58 23.53 24.06 24.33 26.28 29.12 29.36 31.78 31.43 29.30 30.33 31.19 31.73 32.14 32.08 31.62 32.20 32.08 31.26 30.53 30.96 31.69 32.26
33.34 37.34 43.59 43.53 40.76 38.79 34.39 29.77 23.11 20.08 11.58 11.94 18.99 20.84 20.95 22.03 20.52 20.22 20.91 22.66 22.52 20.03 20.53 17.66 20.54 9.72 8.70 6.31 16.78 21.76 23.05 24.35 25.00 23.76 24.57 26.98 27.83 29.35 30.70 29.44 29.61 30.07 30.83 30.92 31.62 31.91 31.76 31.56 30.91 30.54 31.63 31.72 32.09 32.04
35.30 39.03 43.33 42.28 35.79 29.48 22.55 28.35 21.16 11.07 15.01 21.93 22.22 22.13 22.08 22.25 23.17 24.37 23.85 23.23 22.70 23.41 25.13 19.41 18.39 17.46 19.79 21.88 22.01 22.92 22.93 24.25 24.01 25.21 25.40 26.38 28.58 27.85 29.53 29.73 29.52 28.73 29.48 29.94 30.66 30.68 30.57 30.39 30.35 30.60 30.48 31.00 30.74 31.42
43.06 43.08 42.59 40.19 34.51 19.72 14.08 24.57 30.90 25.08 16.34 20.76 22.52 21.84 22.30 22.53 23.27 23.46 22.43 20.95 22.63 19.57 19.07 19.65 18.65 23.24 22.33 24.59 25.11 24.64 25.32 25.55 24.52 24.54 25.28 27.36 28.87 26.59 27.52 28.25 27.70 27.36 27.64 28.33 29.17 32.83 29.56 29.71 29.85 30.08 30.61 30.25 28.91 29.15
39.34 39.71 39.89 34.12 29.70 20.59 16.87 22.91 19.90 23.66 24.45 20.62 22.36 22.63 22.03 22.70 20.58 18.50 20.12 22.59 15.22 19.38 21.26 23.36 22.90 25.14 26.16 26.67 26.63 26.54 25.96 25.52 25.55 25.86 26.04 25.45 28.10 25.94 26.92 27.89 27.96 27.55 27.00 26.75 26.41 27.50 28.91 26.65 26.25 26.54 26.88 27.18 28.06 29.21
34.95 39.70 32.35 34.60 29.25 28.18 21.45 19.18 20.84 26.66 22.82 23.15 21.56 23.24 20.49 18.88 21.38 20.23 19.37 20.13 20.99 22.66 23.36 24.11 26.72 27.45 25.88 25.79 27.90 27.21 28.83 27.42 27.07 27.78 32.23 30.34 26.19 26.04 26.38 26.72 27.07 27.15 26.68 26.61 26.18 25.77 26.41 27.19 28.17 27.51 27.64 29.22 31.27 31.14
37.17 33.07 31.04 30.35 24.87 25.15 18.43 28.45 22.49 24.43 20.87 17.28 21.53 16.69 14.77 18.12 22.45 24.59 22.45 24.06 24.10 25.88 26.27 26.03 26.77 27.31 27.28 28.18 28.10 28.41 28.02 26.84 25.97 25.98 26.91 27.20 27.11 26.78 25.40 25.54 26.44 26.61 26.15 26.43 26.70 26.58 27.74 32.74 31.72 30.00 29.23 29.59 30.63 31.46
33.73 19.83 20.11 24.28 17.83 14.41 18.98 21.94 23.07 19.64 22.97 19.66 16.92 11.32 15.11 17.22 22.35 19.81 21.00 22.37 24.15 24.72 24.85 25.40 26.30 25.66 25.86 25.85 25.73 27.78 29.57 28.16 26.75 25.87 26.16 26.48 25.64 25.74 25.94 25.64 26.42 27.00 27.33 27.31 27.89 27.95 28.31 29.33 33.39 30.97 30.49 30.72 31.10 31.26
18.95 23.27 18.58 16.71 18.37 14.15 11.25 9.98 12.94 19.36 10.47 16.37 14.20 11.40 15.29 20.51 15.29 16.40 19.15 21.53 21.74 21.97 22.95 24.46 24.84 25.93 26.19 25.78 25.27 26.05 27.47 27.03 25.75 25.34 26.78 27.12 26.28 25.19 25.52 26.26 28.45 29.57 30.48 29.35 29.52 29.94 29.75 29.97 30.50 30.68 30.83 31.49 31.34 32.06
9.38 15.96 19.92 16.88 17.23 17.20 16.28 11.04 14.68 17.91 19.13 11.10 17.60 19.45 19.87 16.79 13.85 15.47 19.33 21.94 21.79 23.35 24.57 25.02 25.22 24.92 25.02 25.59 25.59 25.44 27.46 26.90 26.61 26.24 26.61 26.89 26.31 25.61 25.63 27.25 27.59 29.69 31.01 30.71 30.19 30.38 30.41 30.45 30.54 30.84 30.17 30.47 34.16 31.29
7.19 13.03 20.19 22.31 21.52 21.39 18.47 20.91 21.07 18.48 16.51 13.82 13.98 12.07 10.28 8.98 10.39 18.30 21.89 23.25 23.21 24.75 26.95 26.74 26.10 25.33 24.72 24.68 25.43 26.74 27.27 26.57 26.52 27.20 28.40 28.82 29.12 29.63 29.40 28.58 28.47 30.34 31.32 31.57 31.14 30.88 30.42 30.26 30.25 30.05 30.03 30.17 29.88 30.13
17.22 20.10 18.19 20.67 20.71 21.51 15.18 14.04 16.43 16.63 18.02 19.12 17.88 12.51 12.73 13.55 15.70 21.30 22.64 24.44 25.67 27.63 29.24 29.19 28.40 26.57 26.64 25.81 26.64 29.07 29.67 29.85 30.33 30.08 29.54 29.08 29.11 29.93 29.98 30.22 30.00 35.05 31.57 31.23 31.48 31.11 30.80 30.46 29.82 29.87 30.02 29.77 29.26 29.61
19.83 21.62 20.72 15.67 17.78 19.86 19.26 19.81 19.00 21.08 22.70 20.68 18.54 16.21 18.64 22.43 23.78 23.62 25.17 24.71 26.90 28.10 27.53 27.52 28.21 28.73 27.69 27.85 28.18 28.71 29.08 28.93 27.68 25.87 25.10 24.94 23.88 26.09 27.70 28.24 28.75 29.53 29.09 30.50 34.67 33.30 30.89 30.07 29.53 29.68 30.05 30.01 29.63 29.61
21.78 23.15 17.17 16.86 12.48 14.75 20.33 22.98 21.37 22.07 22.18 22.65 22.59 21.91 21.93 22.14 24.25 24.96 24.13 24.73 24.89 25.43 26.90 27.55 28.54 27.98 27.50 26.59 26.90 27.39 27.77 28.25 28.17 26.28 24.65 23.82 24.19 26.14 26.69 27.38 28.22 28.27 28.04 28.39 28.71 29.19 33.23 32.06 32.12 31.54 31.01 29.62 30.86 31.14
23.59 22.65 18.46 17.37 14.53 18.80 21.00 22.10 22.63 22.94 21.44 19.50 20.15 20.72 23.17 22.91 23.95 24.49 24.56 24.85 25.64 25.34 25.01 25.25 26.25 27.75 27.45 26.46 25.70 25.29 25.21 26.82 27.59 28.22 28.20 26.97 26.79 26.42 26.67 27.03 27.42 27.16 27.78 28.16 28.28 28.37 28.42 28.63 29.65 30.39 30.41 29.96 30.16 30.78
20.33 19.34 18.01 13.22 14.84 19.06 20.11 19.67 19.48 19.58 19.51 19.72 19.65 18.96 21.17 21.60 19.88 23.87 24.62 23.79 23.38 23.22 26.95 27.08 24.77 25.57 27.42 27.98 27.41 27.37 32.23 27.91 27.85 28.11 28.67 28.43 27.84 27.68 27.94 27.94 28.12 28.24 28.16 28.54 28.27 29.42 31.29 31.24 30.90 30.78 30.26 30.21 30.47 30.80
18.47 20.49 19.88 18.20 14.14 13.91 18.89 17.91 17.35 15.54 16.46 15.88 18.04 20.65 21.25 21.43 19.92 23.94 24.07 24.18 24.07 23.48 23.74 24.55 25.62 26.20 26.24 27.01 27.27 27.75 30.81 27.80 29.01 32.75 33.17 33.37 33.01 30.96 28.72 28.85 30.89 31.98 31.62 31.17 31.26 31.41 31.10 31.01 30.78 30.82 30.70 30.86 31.21 31.11
MSLP
1018.05 1019.74 1020.94 1021.84 1022.45 1022.91 1023.76 1024.34 1024.87 1025.14 1025.45 1025.79 1026.06 1026.11 1026.18 1026.08 1025.96 1026.46 1027.76 1027.66 1027.80 1029.10 1029.42 1029.28 1028.93 1029.04 1029.44 1030.22 1030.98 1031.06 1031.44 1031.57 1031.71 1032.52 1033.08 1032.66 1032.25 1031.50 1031.18 1030.81 1030.22 1030.40 1029.75 1028.85 1027.09 1025.37 1023.28 1022.07 1021.40 1021.51 1020.74 1019.75 1019.38 1018.66
1018.74 1020.43 1021.44 1022.19 1022.80 1023.22 1023.79 1024.51 1025.08 1025.53 1025.84 1025.90 1026.41 1026.55 1026.77 1026.48 1026.48 1026.55 1028.11 1028.20 1028.19 1028.79 1029.11 1028.98 1028.75 1028.60 1028.56 1029.23 1030.43 1030.91 1031.74 1031.95 1032.13 1032.75 1033.52 1033.55 1033.00 1032.44 1031.74 1031.41 1030.30 1029.86 1028.90 1028.23 1027.76 1024.99 1022.85 1022.17 1021.93 1021.09 1020.47 1019.79 1018.58 1018.27
1019.23 1020.59 1021.56 1021.85 1022.55 1023.38 1024.22 1024.96 1025.37 1026.02 1025.97 1026.33 1026.70 1027.03 1027.07 1027.09 1027.23 1027.30 1028.32 1028.75 1029.15 1029.81 1029.70 1029.30 1028.57 1028.49 1028.12 1028.41 1028.90 1030.17 1030.98 1030.85 1031.36 1031.56 1032.75 1033.61 1033.23 1032.06 1031.65 1030.87 1030.06 1028.96 1027.89 1027.65 1026.63 1023.90 1022.90 1022.12 1021.05 1020.52 1019.87 1019.01 1017.80 1017.45
1019.97 1021.08 1021.81 1022.52 1022.90 1023.53 1024.31 1024.87 1025.41 1026.38 1026.52 1026.59 1026.71 1026.98 1027.14 1027.35 1027.56 1027.83 1028.61 1029.29 1029.52 1030.40 1030.68 1029.68 1028.60 1028.66 1028.14 1028.21 1028.38 1028.93 1029.50 1030.09 1030.79 1031.93 1033.01 1033.46 1033.04 1031.40 1030.60 1029.69 1028.97 1027.75 1027.37 1026.34 1025.14 1023.86 1022.67 1021.28 1020.70 1020.17 1019.42 1018.56 1017.78 1017.34
1020.43 1021.13 1021.93 1022.61 1023.11 1023.82 1024.48 1025.16 1025.77 1026.39 1026.72 1027.02 1027.25 1027.35 1027.58 1027.75 1027.81 1028.44 1028.87 1029.21 1029.37 1030.22 1031.83 1030.63 1029.52 1028.84 1028.29 1027.94 1027.88 1028.34 1029.19 1029.78 1030.62 1031.74 1032.50 1032.14 1031.18 1031.02 1029.75 1029.07 1027.11 1026.41 1025.58 1025.58 1024.00 1022.75 1022.47 1021.09 1020.32 1019.87 1019.36 1018.65 1017.95 1017.63
1020.61 1021.51 1021.77 1022.83 1023.44 1024.25 1025.05 1025.81 1026.34 1026.64 1026.92 1027.32 1027.24 1027.64 1027.95 1028.23 1028.41 1028.84 1029.56 1029.60 1029.41 1029.87 1031.61 1032.22 1031.15 1029.73 1029.28 1027.95 1027.78 1028.42 1028.78 1029.72 1030.33 1030.97 1030.83 1029.88 1029.28 1029.48 1028.78 1027.57 1024.63 1024.34 1024.02 1023.57 1022.96 1021.97 1021.55 1020.70 1020.28 1019.39 1018.91 1018.23 1017.82 1017.56
1021.47 1021.68 1022.28 1023.24 1023.96 1024.78 1025.54 1026.08 1026.51 1026.94 1027.19 1027.44 1027.76 1027.71 1028.22 1028.56 1029.21 1029.75 1030.07 1030.06 1029.52 1030.27 1031.98 1032.36 1032.64 1030.64 1030.04 1029.05 1028.92 1029.15 1029.35 1029.92 1030.07 1029.97 1030.06 1029.59 1028.83 1028.45 1027.45 1026.21 1023.71 1023.45 1022.80 1022.28 1021.70 1021.46 1020.77 1020.30 1019.56 1018.82 1018.45 1017.83 1017.64 1017.54
1021.97 1022.44 1023.01 1023.83 1024.61 1025.18 1025.87 1026.40 1026.76 1027.23 1027.20 1027.51 1028.03 1028.26 1028.59 1028.95 1029.29 1029.79 1030.71 1029.88 1030.00 1031.16 1031.91 1033.47 1033.27 1032.02 1030.45 1030.53 1030.69 1029.84 1030.18 1030.41 1030.45 1029.71 1029.36 1028.97 1028.26 1027.59 1026.62 1024.79 1023.99 1023.09 1022.10 1021.19 1020.54 1020.45 1020.04 1019.45 1019.15 1018.56 1017.91 1017.77 1017.73 1017.72
1022.51 1022.94 1023.61 1024.52 1025.27 1025.77 1026.15 1026.75 1027.02 1027.42 1027.54 1027.89 1028.15 1028.66 1029.65 1030.08 1030.49 1030.80 1030.51 1030.72 1030.87 1031.67 1033.04 1034.01 1034.20 1033.06 1031.35 1031.04 1031.09 1030.88 1030.99 1030.85 1030.44 1029.82 1029.01 1028.43 1027.48 1026.68 1025.34 1024.54 1023.41 1022.40 1021.83 1020.81 1019.93 1019.70 1019.42 1019.17 1018.65 1018.32 1017.81 1017.80 1017.97 1017.86
1022.74 1023.33 1023.99 1024.64 1025.49 1026.09 1026.26 1026.72 1027.21 1027.46 1028.01 1028.10 1028.61 1029.83 1030.77 1030.99 1030.39 1030.76 1031.47 1031.73 1031.88 1032.48 1033.36 1033.86 1033.80 1033.22 1032.38 1032.12 1032.12 1032.66 1031.93 1031.66 1030.64 1029.11 1028.17 1027.36 1026.35 1025.21 1024.53 1023.75 1022.81 1021.88 1020.90 1020.09 1019.60 1019.03 1018.62 1018.45 1018.15 1017.90 1017.65 1017.79 1017.96 1018.04
1022.97 1023.42 1023.81 1024.71 1025.38 1025.84 1026.29 1026.82 1027.20 1027.84 1028.08 1028.91 1029.76 1030.77 1031.32 1030.83 1031.05 1032.65 1033.76 1034.08 1034.65 1034.48 1034.04 1033.76 1033.74 1033.43 1031.87 1032.14 1032.64 1032.54 1032.56 1032.10 1030.96 1029.13 1028.09 1026.70 1025.70 1024.52 1023.66 1023.07 1022.17 1021.21 1020.43 1019.54 1019.00 1018.45 1018.21 1018.13 1017.75 1017.76 1017.62 1017.75 1018.01 1017.98
1023.15 1023.56 1024.25 1024.75 1025.45 1025.71 1026.22 1026.63 1027.37 1028.42 1028.96 1029.18 1030.03 1031.27 1031.75 1032.96 1033.56 1034.54 1036.16 1035.94 1035.33 1034.68 1033.85 1033.48 1032.77 1032.88 1032.41 1031.94 1032.61 1032.54 1032.32 1031.88 1030.30 1028.67 1028.02 1026.40 1025.29 1024.35 1023.62 1022.79 1021.81 1020.95 1020.15 1019.17 1018.31 1018.06 1017.64 1017.44 1017.36 1017.53 1017.70 1018.11 1018.17 1018.20
1023.23 1023.74 1024.35 1024.73 1025.07 1025.83 1026.16 1026.81 1027.71 1028.18 1028.80 1029.65 1030.66 1032.57 1033.53 1035.12 1035.66 1036.14 1036.62 1036.26 1034.70 1033.43 1033.05 1033.06 1033.01 1032.72 1032.46 1032.56 1032.65 1032.50 1032.07 1030.79 1029.05 1028.29 1027.05 1026.21 1025.24 1024.50 1023.84 1022.89 1021.86 1020.92 1020.11 1019.31 1018.52 1018.09 1017.66 1017.41 1017.44 1017.72 1018.23 1018.37 1018.50 1018.65
1023.33 1023.56 1024.44 1024.82 1025.11 1025.65 1026.29 1027.09 1027.83 1028.67 1029.44 1031.18 1032.74 1034.37 1034.96 1035.43 1035.52 1035.12 1035.25 1034.88 1033.74 1032.46 1032.45 1032.88 1033.19 1033.20 1033.05 1032.99 1032.94 1032.70 1031.12 1030.02 1028.84 1027.66 1026.88 1026.01 1025.38 1024.73 1023.92 1022.99 1022.15 1021.06 1020.17 1019.49 1018.75 1018.48 1018.23 1018.24 1018.23 1018.47 1018.77 1018.78 1018.95 1019.19
1023.36 1023.83 1024.24 1024.54 1025.23 1025.69 1026.39 1027.09 1027.86 1028.81 1030.51 1032.46 1033.84 1034.40 1034.77 1033.73 1033.87 1033.86 1034.01 1034.13 1033.26 1032.50 1032.34 1032.85 1033.34 1033.74 1033.60 1033.63 1032.91 1032.07 1030.78 1029.38 1028.11 1027.46 1026.68 1026.01 1025.46 1024.58 1023.84 1022.99 1022.13 1021.28 1020.44 1019.74 1019.14 1019.06 1018.97 1019.01 1019.01 1019.21 1019.38 1019.43 1019.59 1019.66
1023.53 1024.04 1024.86 1024.86 1025.42 1026.09 1026.59 1027.54 1028.56 1029.66 1031.25 1032.74 1033.81 1034.06 1033.66 1033.88 1032.95 1033.22 1033.35 1033.16 1032.61 1032.45 1032.50 1032.93 1033.71 1034.29 1033.92 1033.38 1032.63 1031.18 1029.79 1028.50 1027.73 1026.94 1026.44 1025.91 1025.06 1024.48 1023.83 1023.11 1022.29 1021.44 1020.70 1020.16 1019.79 1019.58 1019.60 1019.63 1019.82 1020.05 1020.12 1020.22 1020.27 1020.23
1023.59 1024.27 1024.43 1024.94 1025.66 1026.76 1027.31 1028.63 1030.01 1030.76 1031.87 1032.77 1032.60 1032.29 1032.90 1033.01 1032.91 1032.15 1031.97 1032.04 1031.99 1032.50 1032.73 1033.02 1033.63 1033.18 1033.03 1032.55 1031.39 1029.58 1028.46 1027.59 1027.15 1026.63 1026.17 1025.66 1025.13 1024.65 1024.13 1023.13 1022.55 1021.76 1021.24 1020.80 1020.45 1020.30 1020.29 1020.37 1020.50 1020.62 1020.87 1021.06 1020.91 1020.80
1024.04 1024.37 1024.72 1025.19 1026.17 1027.14 1028.50 1029.57 1030.85 1030.99 1032.09 1032.48 1032.70 1032.26 1031.95 1031.65 1031.76 1031.54 1031.25 1031.31 1031.72 1031.77 1031.93 1032.14 1032.04 1032.21 1031.62 1030.88 1029.37 1028.08 1027.38 1026.86 1026.50 1026.31 1025.94 1025.47 1024.94 1024.33 1023.91 1023.39 1022.88 1022.39 1021.89 1021.51 1021.25 1021.08 1021.04 1021.04 1021.17 1021.51 1021.57 1021.46 1021.37 1021.42
1024.03 1024.38 1024.98 1025.98 1026.65 1027.57 1029.11 1030.42 1030.33 1031.47 1031.65 1031.57 1031.70 1031.86 1031.41 1031.01 1030.58 1030.10 1030.21 1030.41 1030.55 1030.68 1030.97 1031.22 1030.96 1030.30 1029.29 1028.30 1027.73 1027.19 1026.83 1026.65 1026.61 1026.17 1025.71 1025.02 1024.67 1024.38 1023.94 1023.45 1023.15 1022.85 1022.53 1022.19 1021.92 1021.80 1021.79 1021.79 1021.87 1021.88 1021.95 1021.92 1021.95 1021.86
1023.92 1024.41 1025.45 1026.39 1026.74 1028.36 1029.78 1030.67 1030.76 1031.19 1031.24 1030.99 1031.19 1031.27 1030.79 1030.19 1029.64 1029.49 1029.60 1029.93 1030.24 1030.41 1030.41 1029.92 1028.65 1027.48 1027.18 1026.63 1026.47 1026.36 1026.26 1026.15 1026.36 1026.22 1025.58 1024.93 1024.54 1024.36 1024.03 1023.79 1023.50 1023.27 1023.00 1022.71 1022.48 1022.27 1022.29 1022.30 1022.32 1022.29 1022.19 1022.24 1022.28 1022.20
1024.67 1025.59 1026.00 1026.58 1028.39 1029.13 1030.04 1030.72 1031.13 1030.83 1030.59 1030.83 1030.60 1030.52 1030.03 1029.64 1029.55 1029.34 1029.20 1029.20 1029.79 1029.45 1028.72 1027.31 1026.57 1025.99 1025.81 1025.53 1025.47 1025.55 1025.56 1025.73 1025.80 1025.72 1025.37 1025.06 1024.59 1024.42 1024.11 1023.88 1023.65 1023.47 1023.41 1023.35 1023.25 1023.05 1022.93 1023.04 1023.00 1022.78 1022.60 1022.50 1022.45 1022.27
1025.04 1025.47 1026.90 1027.76 1029.00 1029.71 1030.25 1030.51 1030.54 1030.36 1030.63 1030.39 1030.44 1030.02 1029.86 1029.50 1029.12 1028.71 1028.58 1028.65 1028.14 1026.77 1026.07 1025.45 1025.10 1025.05 1025.11 1025.06 1024.76 1024.74 1024.57 1024.70 1024.79 1024.85 1024.57 1024.59 1024.62 1024.42 1024.30 1024.21 1024.01 1023.88 1023.78 1023.76 1023.73 1023.63 1023.50 1023.26 1023.06 1022.94 1022.81 1022.69 1022.52 1022.37
1025.06 1026.40 1027.72 1028.52 1029.49 1030.05 1030.62 1030.15 1030.22 1030.15 1030.40 1030.53 1030.28 1030.12 1029.67 1029.25 1028.46 1028.17 1028.03 1027.10 1026.04 1024.93 1024.51 1024.42 1024.14 1023.98 1024.08 1023.86 1023.92 1023.86 1023.84 1024.08 1024.19 1024.15 1024.20 1024.23 1024.20 1024.21 1024.29 1024.18 1024.06 1023.99 1023.91 1023.87 1023.83 1023.82 1023.71 1023.46 1023.24 1023.12 1023.04 1022.89 1022.72 1022.57
1025.59 1027.18 1028.23 1028.75 1029.45 1030.29 1030.48 1030.17 1030.09 1030.18 1030.16 1030.40 1030.38 1030.16 1029.54 1028.79 1028.29 1028.00 1027.38 1026.08 1024.78 1024.18 1024.06 1023.72 1023.66 1023.74 1023.69 1023.62 1023.56 1023.25 1023.18 1023.39 1023.62 1023.79 1023.85 1024.02 1024.14 1024.11 1024.00 1023.97 1023.87 1023.78 1023.84 1023.91 1023.91 1023.85 1023.70 1023.52 1023.39 1023.32 1023.28 1023.18 1023.01 1022.80
1026.71 1028.14 1028.38 1028.98 1029.46 1030.03 1030.32 1030.30 1030.20 1030.25 1030.14 1030.02 1030.17 1029.86 1028.96 1028.55 1028.42 1027.65 1026.64 1025.19 1024.41 1023.93 1023.62 1023.33 1023.32 1023.38 1023.49 1023.31 1023.12 1022.95 1022.87 1023.02 1023.38 1023.63 1023.56 1023.64 1023.84 1023.98 1024.00 1023.91 1023.81 1023.71 1023.68 1023.86 1023.93 1023.87 1023.77 1023.67 1023.63 1023.61 1023.57 1023.46 1023.37 1023.23
1026.92 1027.57 1027.95 1028.00 1028.71 1029.13 1029.27 1029.51 1029.51 1029.36 1029.30 1029.52 1029.25 1028.73 1028.51 1028.43 1028.10 1027.07 1025.70 1024.28 1023.90 1023.47 1023.27 1023.22 1023.28 1023.33 1023.23 1023.05 1023.01 1022.81 1022.64 1022.74 1023.04 1023.26 1023.21 1023.24 1023.41 1023.63 1023.80 1023.90 1023.90 1023.76 1023.62 1023.71 1023.85 1023.85 1023.81 1023.79 1023.84 1023.82 1023.87 1023.84 1023.70 1023.60
1026.44 1027.11 1027.27 1027.24 1027.43 1027.83 1028.19 1028.15 1028.23 1028.47 1028.50 1028.51 1028.44 1028.39 1028.51 1028.23 1027.05 1025.53 1024.08 1023.47 1023.37 1022.95 1022.83 1022.81 1022.85 1022.86 1022.80 1022.68 1022.62 1022.55 1022.52 1022.61 1022.70 1022.73 1022.73 1022.90 1023.07 1023.25 1023.43 1023.62 1023.52 1023.49 1023.43 1023.53 1023.64 1023.74 1023.80 1023.83 1023.92 1024.00 1024.06 1024.08 1024.09 1024.04
1024.74 1025.47 1026.13 1026.82 1027.12 1027.13 1027.37 1027.45 1027.56 1027.42 1027.06 1026.95 1027.23 1027.38 1027.11 1026.47 1025.12 1023.96 1023.35 1022.70 1022.56 1022.52 1022.53 1022.51 1022.50 1022.54 1022.51 1022.35 1022.37 1022.50 1022.65 1022.69 1022.73 1022.78 1022.88 1023.03 1023.08 1023.15 1023.24 1023.26 1023.28 1023.31 1023.39 1023.47 1023.58 1023.70 1023.78 1023.83 1023.88 1023.95 1024.05 1024.16 1024.21 1024.15
1024.47 1024.64 1025.20 1026.20 1026.59 1026.63 1026.44 1026.12 1025.85 1025.37 1024.95 1025.44 1025.67 1025.40 1024.73 1024.02 1023.21 1022.89 1022.61 1022.49 1022.34 1022.51 1022.59 1022.53 1022.44 1022.45 1022.50 1022.47 1022.43 1022.52 1022.63 1022.81 1023.04 1023.06 1023.14 1023.33 1023.40 1023.31 1023.13 1023.23 1023.30 1023.37 1023.48 1023.53 1023.54 1023.61 1023.68 1023.76 1023.85 1023.93 1023.98 1024.07 1024.07 1024.03
1023.63 1023.97 1024.75 1025.32 1025.79 1025.74 1024.74 1024.35 1024.14 1023.82 1023.84 1023.79 1023.74 1023.69 1023.42 1022.84 1022.27 1021.98 1022.22 1022.47 1022.57 1022.33 1022.04 1022.04 1022.03 1022.24 1022.38 1022.54 1022.52 1022.59 1022.57 1022.58 1022.70 1022.87 1023.02 1023.23 1023.33 1023.22 1023.22 1023.31 1023.40 1023.45 1023.51 1023.56 1023.59 1023.60 1023.56 1023.55 1023.52 1023.63 1023.70 1023.81 1023.71 1023.70
1022.84 1023.60 1024.15 1024.74 1024.79 1024.28 1023.81 1023.57 1023.58 1023.68 1023.69 1023.58 1023.32 1023.26 1022.61 1022.18 1021.69 1021.45 1021.43 1021.35 1021.36 1021.41 1021.68 1021.72 1021.70 1021.64 1021.89 1022.02 1022.15 1022.20 1022.18 1022.05 1022.10 1022.24 1022.41 1022.63 1022.84 1023.03 1023.15 1023.25 1023.38 1023.42 1023.42 1023.45 1023.52 1023.60 1023.65 1023.59 1023.58 1023.54 1023.51 1023.53 1023.49 1023.48
1022.57 1022.99 1023.57 1024.34 1024.25 1023.88 1023.83 1023.85 1023.89 1023.73 1023.40 1023.31 1022.98 1022.67 1022.39 1022.20 1021.75 1021.02 1020.13 1020.26 1020.64 1020.82 1020.56 1020.74 1020.92 1020.79 1020.76 1020.89 1021.14 1021.28 1021.17 1021.34 1021.47 1021.63 1021.88 1022.11 1022.30 1022.53 1022.74 1022.91 1023.04 1023.20 1023.23 1023.29 1023.37 1023.37 1023.29 1023.28 1023.33 1023.32 1023.31 1023.30 1023.27 1023.24
1022.60 1022.86 1023.15 1023.68 1024.11 1024.24 1024.02 1024.11 1024.10 1024.03 1023.63 1023.26 1022.48 1022.00 1021.80 1021.80 1021.43 1020.37 1020.02 1020.02 1020.14 1020.15 1020.21 1020.13 1020.03 1020.02 1020.17 1020.32 1020.50 1020.65 1020.87 1021.04 1021.03 1021.03 1021.17 1021.41 1021.68 1022.07 1022.43 1022.56 1022.56 1022.74 1022.83 1022.92 1022.92 1022.95 1022.97 1023.02 1023.07 1023.09 1023.10 1023.09 1023.07 1023.04
Wind_Speed
31 27 24 21 19 17 16 17 16 15 13 12 11 12 13 13 10 5 0 4 5 4 3 1 1 2 2 2 4 4 6 6 4 3 2 2 2 2 2 3 4 3 3 4 2 4 4 2 14 4 8 11 11 13
29 24 21 19 19 19 18 18 17 15 14 13 12 12 12 14 10 6 4 3 2 4 4 1 4 4 5 7 5 2 4 3 4 4 2 1 2 2 6 5 4 4 6 3 3 7 17 19 14 14 15 14 18 8
28 25 24 23 21 22 20 18 17 15 15 14 13 12 13 13 14 8 3 2 4 3 4 3 1 2 1 5 4 4 3 5 2 4 4 2 3 3 3 6 4 6 4 7 4 7 11 20 19 18 12 16 14 8
27 24 24 23 22 22 20 19 18 15 14 13 13 13 12 12 10 7 4 1 4 3 4 6 3 3 1 1 5 6 4 3 4 4 3 3 3 5 5 7 8 8 3 6 11 17 17 16 10 8 14 11 7 3
27 27 25 24 23 22 20 18 17 15 15 14 12 12 11 11 13 7 3 2 2 5 3 5 6 2 5 2 3 5 5 4 3 3 3 5 3 2 4 1 13 7 18 6 10 14 9 14 14 17 15 13 7 4
25 25 25 23 21 21 19 17 16 15 15 13 12 10 10 10 6 4 5 4 4 4 5 3 4 5 6 7 5 3 4 3 4 4 4 4 3 4 4 5 10 8 12 15 19 18 16 18 14 17 18 12 6 4
24 24 22 21 21 19 18 17 16 14 12 10 9 8 6 7 4 3 4 3 2 4 4 5 6 5 5 4 3 3 5 1 3 2 3 2 3 5 3 8 19 13 11 12 15 11 13 8 12 15 9 8 4 3
21 21 21 20 20 19 17 15 14 12 10 9 7 7 11 14 8 5 4 6 4 5 3 3 5 5 4 3 4 1 2 3 2 2 2 3 3 1 5 7 9 11 14 14 13 12 16 16 14 15 7 3 3 5
20 20 21 19 18 17 15 13 12 10 8 8 8 11 5 5 4 0 0 8 3 5 4 3 2 4 4 3 2 4 2 2 2 2 3 2 2 4 5 11 13 16 12 18 16 8 7 9 11 8 4 3 4 5
20 19 18 17 15 15 14 12 10 9 7 9 5 4 3 2 4 5 7 5 5 3 1 1 1 4 2 1 4 2 2 1 2 5 2 4 4 3 11 12 13 15 17 14 6 6 3 5 7 6 6 3 3 3
19 19 19 17 16 15 13 11 10 12 8 4 3 2 3 6 5 4 3 5 3 5 1 3 4 3 2 1 4 2 3 1 2 6 1 3 2 5 8 12 13 13 12 11 7 7 6 7 6 6 4 4 2 3
18 18 17 17 15 14 11 10 14 5 2 4 5 4 4 6 5 7 1 4 2 4 2 3 4 5 4 2 3 3 2 2 5 1 1 2 3 8 12 15 15 14 13 12 6 8 8 6 4 4 3 3 2 3
15 15 15 16 16 15 13 13 11 17 7 4 6 5 5 4 6 6 3 5 2 3 3 2 4 2 4 3 2 1 1 5 3 1 3 2 5 9 12 12 13 13 10 8 8 4 4 3 4 4 6 4 5 5
16 16 15 15 14 11 11 16 19 8 6 5 4 3 4 3 4 6 5 3 5 3 1 2 3 1 1 3 1 2 5 2 3 4 2 3 5 10 12 11 9 13 11 8 7 2 7 6 7 7 6 4 6 6
16 15 15 14 14 12 15 20 12 5 4 3 5 3 5 4 2 3 2 2 4 2 2 2 3 2 3 3 1 2 5 3 1 3 3 4 8 9 10 11 11 10 9 7 4 3 6 6 6 7 6 6 6 5
18 14 3 11 13 15 22 12 6 3 3 4 1 2 2 0 2 0 3 4 2 2 2 3 2 3 4 2 1 5 2 1 3 3 3 3 6 7 10 10 10 8 7 6 5 4 5 6 5 5 6 6 6 6
11 3 12 19 22 24 15 5 3 4 3 2 3 2 2 2 5 3 3 4 3 3 2 3 2 8 1 2 3 4 2 3 3 5 3 5 6 6 9 10 9 8 8 7 5 6 5 5 5 6 8 5 6 6
3 7 20 26 17 8 3 4 4 4 0 3 1 3 3 3 2 3 4 3 3 3 3 4 3 1 5 4 4 3 3 3 3 3 4 5 5 6 5 7 7 6 7 7 6 5 5 6 6 4 5 4 5 5
6 9 25 23 8 6 4 1 4 2 5 2 2 3 3 4 4 4 3 3 3 3 4 1 3 4 5 4 5 4 4 3 3 4 4 6 5 5 6 6 5 6 6 6 6 4 4 5 3 3 3 3 3 3
18 24 25 13 6 4 6 2 2 2 2 3 2 3 4 4 2 2 3 3 4 3 3 5 7 6 5 5 4 4 4 2 1 4 5 4 2 4 4 4 4 5 4 5 5 7 4 4 4 4 4 4 3 3
13 13 12 7 4 5 4 4 2 3 2 2 2 3 4 1 3 2 3 4 3 4 4 7 6 6 6 6 4 4 5 4 4 5 4 4 3 2 3 3 3 3 3 3 4 5 6 3 3 4 4 3 3 2
6 12 4 4 3 2 2 2 4 2 2 2 2 2 3 2 3 3 1 2 4 6 5 5 8 7 5 6 8 7 8 7 6 4 8 5 3 2 2 2 2 3 3 3 3 3 3 3 3 3 3 3 4 3
13 5 4 3 3 2 5 1 2 2 2 3 2 2 3 3 3 1 3 4 5 5 5 5 5 6 7 6 4 6 6 6 4 4 4 4 3 3 3 3 2 1 2 2 1 2 3 5 4 4 3 3 3 3
7 5 5 5 4 4 1 2 1 1 2 1 2 4 4 4 1 1 4 4 4 2 3 5 3 3 1 3 4 4 4 4 3 2 3 3 2 3 2 3 2 2 2 2 2 2 2 3 5 4 3 3 3 3
9 3 6 3 2 4 3 1 1 3 4 4 3 4 4 0 1 3 4 4 2 3 3 2 2 3 3 2 2 3 3 4 4 4 2 4 3 1 1 1 2 1 1 1 2 2 2 3 3 3 4 3 4 5
5 7 9 8 3 6 6 5 5 6 4 3 5 3 0 1 1 6 4 3 3 2 2 2 3 2 3 4 2 1 3 4 4 3 2 4 4 4 3 2 1 2 2 2 1 1 2 3 3 4 4 6 8 6
5 6 4 3 3 3 2 1 2 2 5 6 4 2 3 3 6 5 4 3 3 3 2 2 3 3 3 2 3 3 1 3 3 3 1 3 3 3 3 3 4 3 3 3 2 1 0 1 2 2 3 3 3 3
4 6 9 8 3 3 5 3 5 6 5 4 4 4 7 8 6 4 5 3 3 2 2 1 2 3 2 3 2 3 2 2 3 3 2 1 0 2 2 2 2 3 3 2 2 2 1 1 0 1 1 2 2 2
3 4 5 5 3 4 6 7 6 5 5 5 6 5 5 5 3 3 3 3 2 2 2 2 3 1 1 1 2 2 3 4 5 4 3 2 2 3 1 2 2 2 2 1 2 3 3 2 2 2 1 1 2 2
4 4 4 4 6 7 6 7 4 3 3 4 3 1 2 3 4 3 2 2 3 5 5 4 3 4 4 4 3 3 3 4 4 4 3 4 4 2 1 2 3 3 2 2 2 2 3 2 2 1 3 3 3 3
6 3 3 3 5 4 4 3 2 1 2 3 3 4 7 3 3 4 5 5 6 4 4 4 5 5 5 5 5 4 4 4 6 7 5 3 3 3 3 3 3 3 3 3 3 3 2 2 3 4 4 4 5 5
3 6 6 4 4 3 1 3 2 3 3 3 4 2 2 2 4 4 4 4 4 5 10 8 6 6 7 4 4 4 5 3 4 5 8 5 4 4 4 3 3 3 3 4 4 4 4 4 3 4 4 5 5 5
3 2 2 3 2 3 2 2 1 3 2 3 4 4 5 5 7 4 0 1 3 3 4 5 5 4 6 6 7 5 7 4 5 6 7 8 8 7 4 3 3 4 4 3 3 3 4 5 5 5 5 5 5 5
Wind_Direction
130 131 132 136 138 143 152 146 138 132 123 108 91 78 63 58 67 79 65 19 112 123 280 224 99 111 77 84 129 269 23 344 35 68 128 270 263 314 327 285 295 231 200 250 262 276 230 26 343 33 298 304 291 298
125 129 134 141 148 148 144 138 132 127 122 106 95 84 69 61 67 85 63 343 36 99 198 328 271 243 183 185 146 352 192 210 200 78 313 337 290 290 276 272 308 295 190 290 204 259 306 305 291 286 294 277 281 269
132 143 156 149 142 131 129 135 132 127 115 110 99 82 68 59 53 85 114 357 50 51 344 30 224 34 86 168 165 130 284 220 199 175 170 225 238 139 198 237 232 266 250 253 327 257 285 299 295 292 290 300 285 256
132 136 139 139 141 141 135 132 128 128 121 113 104 96 82 72 63 82 86 327 76 98 93 279 17 318 241 207 201 196 209 82 78 82 155 183 195 190 215 242 232 232 257 241 264 282 279 272 272 282 306 316 331 356
150 151 150 140 136 137 135 131 132 132 124 117 103 90 78 78 94 80 76 33 111 113 197 279 306 244 300 243 284 218 186 142 134 117 140 232 228 122 231 308 258 213 253 231 256 262 265 277 298 299 309 300 301 307
143 142 139 137 136 133 133 133 131 129 125 117 101 88 79 86 117 58 38 338 14 87 93 359 303 309 317 343 357 292 188 166 146 159 213 237 248 168 239 246 271 239 241 235 251 264 266 268 282 287 293 274 270 288
139 135 134 138 137 138 138 139 136 132 123 109 101 88 64 87 71 85 168 217 85 72 73 360 333 319 305 331 309 313 18 236 154 189 233 242 241 205 226 255 276 292 269 256 246 264 274 260 272 288 285 267 280 310
139 137 141 140 141 142 143 141 134 121 114 106 87 77 94 95 92 43 335 75 77 87 78 80 278 340 358 313 315 18 350 10 314 228 333 229 321 176 260 267 285 286 288 279 262 245 249 266 277 284 250 240 266 303
143 144 143 142 145 146 144 141 134 130 106 88 82 98 63 36 52 332 172 66 47 110 113 82 120 273 349 281 261 338 44 360 280 247 255 124 258 229 263 300 298 302 296 290 290 265 252 236 250 261 228 263 269 294
151 147 146 145 149 153 153 150 140 126 97 94 69 56 19 315 313 64 13 26 13 356 63 165 83 259 114 355 304 8 22 305 286 248 299 219 253 263 266 270 286 296 299 304 261 280 260 248 224 237 228 214 231 284
156 156 154 155 158 160 160 160 153 112 61 46 60 102 234 357 58 33 32 68 335 351 345 248 198 252 275 158 239 172 240 284 6 270 277 302 283 274 314 314 310 306 307 305 245 270 265 245 222 222 241 231 258 262
169 169 167 163 164 148 150 163 141 79 119 141 127 88 40 37 43 79 300 326 98 237 272 214 240 207 280 102 101 306 207 34 250 287 300 268 264 313 328 321 318 316 316 322 295 261 282 261 255 226 193 100 103 96
170 175 172 170 168 163 156 145 126 125 107 51 49 53 52 318 41 117 234 294 268 200 230 250 305 230 339 46 34 12 335 239 321 199 246 243 303 327 322 319 315 312 314 319 331 316 3 20 98 103 100 97 108 82
173 166 170 173 167 173 151 145 136 106 70 76 97 322 125 319 249 182 187 204 242 178 201 191 256 224 310 11 151 87 248 352 298 356 299 290 307 317 316 313 317 319 322 322 310 321 69 66 73 68 78 107 106 78
152 149 150 154 162 163 151 143 116 62 84 102 85 236 212 219 227 224 201 340 257 225 153 34 21 63 320 17 182 308 342 276 86 289 266 308 316 310 310 323 323 324 324 338 359 21 66 51 65 71 59 79 84 76
144 128 126 159 163 145 130 99 54 78 67 99 87 34 220 301 298 245 193 254 244 154 77 63 89 34 285 180 38 234 238 310 267 259 278 281 288 330 331 327 323 323 331 354 13 37 55 70 76 83 72 65 65 72
112 128 147 127 126 120 99 78 74 61 128 86 271 207 195 276 229 219 177 223 163 91 172 110 85 224 135 306 271 215 232 231 267 291 281 268 285 325 333 320 332 348 4 4 36 50 59 66 80 67 61 33 57 52
105 153 140 135 123 86 57 55 86 111 150 258 276 243 197 217 221 233 222 187 134 170 132 203 146 130 212 203 246 244 257 267 249 260 275 289 292 301 298 308 334 351 3 9 23 43 54 56 59 53 57 33 55 44
145 148 143 139 115 99 94 102 88 134 230 211 246 250 237 246 234 238 207 191 188 174 117 119 222 215 222 227 232 257 261 231 264 297 288 287 278 284 309 326 347 5 2 360 11 24 41 51 50 34 47 57 58 28
144 145 146 128 82 86 68 59 5 220 251 234 220 235 226 223 244 227 218 160 151 146 180 217 215 224 206 226 207 218 224 223 238 320 312 317 315 321 318 333 337 339 355 358 7 24 25 37 29 17 26 45 49 20
99 134 114 77 42 63 107 140 200 213 233 238 239 215 253 250 250 226 236 143 100 200 229 223 233 239 223 239 222 217 239 199 217 205 237 282 283 309 315 322 342 358 9 4 5 352 20 20 343 354 13 20 19 15
106 102 84 56 84 68 65 246 164 167 170 251 291 231 274 282 270 244 169 154 221 226 210 210 236 240 230 233 243 218 242 231 227 231 255 264 284 322 322 304 341 344 344 332 337 336 332 333 338 1 14 353 23 21
91 69 72 98 108 183 252 248 176 203 229 262 322 312 274 256 235 127 254 224 244 231 219 221 237 215 221 244 226 246 230 208 220 221 224 235 243 254 259 277 240 249 345 316 322 316 316 335 355 17 357 5 18 23
70 80 126 154 127 192 15 199 2 167 236 215 229 275 264 230 284 246 248 258 246 262 219 234 222 261 270 243 227 229 214 188 205 214 200 176 219 268 234 255 245 224 212 275 305 302 322 351 6 20 18 18 6 351
91 190 116 166 171 101 146 180 238 182 236 224 196 278 265 143 249 257 242 268 260 271 283 282 230 218 226 243 271 266 203 169 180 208 227 189 171 116 295 286 274 255 149 23 340 351 357 9 20 22 24 27 33 19
161 211 180 175 164 165 187 165 197 209 189 221 229 245 107 127 297 246 245 243 241 251 264 223 213 224 248 216 229 254 238 176 154 180 246 187 179 167 183 191 218 280 204 175 159 8 6 20 20 32 26 20 23 31
161 200 194 221 152 140 159 196 149 157 196 208 229 167 100 193 245 246 263 227 224 234 231 232 197 203 229 253 233 248 216 161 169 181 153 155 171 182 163 178 207 232 177 170 152 151 273 6 24 32 23 26 22 23
183 162 160 172 179 177 157 167 183 210 222 204 119 183 189 200 233 232 216 236 214 208 222 242 227 215 230 235 210 138 117 123 100 88 82 48 209 216 200 213 234 196 157 172 178 159 175 182 144 47 20 16 4 358
177 161 114 147 139 180 208 198 208 215 193 161 181 209 228 217 225 224 244 212 182 167 225 251 265 182 53 44 101 159 151 157 148 168 212 250 333 301 196 190 193 158 163 219 247 199 202 193 206 214 238 247 260 272
166 151 110 146 158 209 228 189 216 220 197 196 198 288 267 264 242 195 183 173 184 219 226 216 211 184 212 199 219 237 218 198 194 171 188 220 227 249 205 195 195 188 180 192 237 293 312 318 320 337 296 294 271 291
135 145 110 147 214 227 223 229 239 226 215 218 222 214 249 254 280 227 206 208 217 216 194 221 226 204 196 201 199 209 251 228 212 215 211 201 207 199 192 190 190 184 190 196 212 225 239 251 248 254 265 272 280 284
128 168 153 173 255 272 73 180 219 217 236 197 238 187 281 241 268 266 228 182 190 212 229 220 213 230 208 214 186 202 200 189 191 200 203 201 205 206 191 182 185 185 194 207 219 244 257 269 268 258 257 266 271 280
98 98 82 102 2 310 261 116 318 298 299 262 255 213 207 194 230 254 259 201 208 225 230 229 227 214 205 205 205 209 214 206 208 200 200 198 195 187 178 185 200 210 217 237 239 241 255 258 256 258 260 260 259 258